����������;��������(kVARh)
2019-04-08 00:00;2,75
2019-04-08 00:15;4,1
2019-04-08 00:30;4,45
2019-04-08 00:45;4,25
2019-04-08 01:00;6
2019-04-08 01:15;4,25
2019-04-08 01:30;5,25
2019-04-08 01:45;5,9
2019-04-08 02:00;4,65
2019-04-08 02:15;4,85
2019-04-08 02:30;4,75
2019-04-08 02:45;5,95
2019-04-08 03:00;5,05
2019-04-08 03:15;5,75
2019-04-08 03:30;6,5
2019-04-08 03:45;5,85
2019-04-08 04:00;4,45
2019-04-08 04:15;4,55
2019-04-08 04:30;4,2
2019-04-08 04:45;4,6
2019-04-08 05:00;4,9
2019-04-08 05:15;6,6
2019-04-08 05:30;3,95
2019-04-08 05:45;2,8
2019-04-08 06:00;2,8
2019-04-08 06:15;0,95
2019-04-08 06:30;1,15
2019-04-08 06:45;2,75
2019-04-08 07:00;2,45
2019-04-08 07:15;6,2
2019-04-08 07:30;32,65
2019-04-08 07:45;37,25
2019-04-08 08:00;34,95
2019-04-08 08:15;38,5
2019-04-08 08:30;35,35
2019-04-08 08:45;35,05
2019-04-08 09:00;28,2
2019-04-08 09:15;37,4
2019-04-08 09:30;38,05
2019-04-08 09:45;40,4
2019-04-08 10:00;44,25
2019-04-08 10:15;44,7
2019-04-08 10:30;48,2
2019-04-08 10:45;44,05
2019-04-08 11:00;51,8
2019-04-08 11:15;51,5
2019-04-08 11:30;51,5
2019-04-08 11:45;57,85
2019-04-08 12:00;54,85
2019-04-08 12:15;56,7
2019-04-08 12:30;49,55
2019-04-08 12:45;56,7
2019-04-08 13:00;51,05
2019-04-08 13:15;52,85
2019-04-08 13:30;53,65
2019-04-08 13:45;54,4
2019-04-08 14:00;52,5
2019-04-08 14:15;55,2
2019-04-08 14:30;62,6
2019-04-08 14:45;57,3
2019-04-08 15:00;63,65
2019-04-08 15:15;55,65
2019-04-08 15:30;62
2019-04-08 15:45;54,5
2019-04-08 16:00;51,8
2019-04-08 16:15;48,75
2019-04-08 16:30;48,75
2019-04-08 16:45;38,85
2019-04-08 17:00;40,95
2019-04-08 17:15;35,35
2019-04-08 17:30;40,65
2019-04-08 17:45;37,1
2019-04-08 18:00;41,45
2019-04-08 18:15;35,35
2019-04-08 18:30;36,15
2019-04-08 18:45;38,3
2019-04-08 19:00;37,65
2019-04-08 19:15;33,3
2019-04-08 19:30;32,6
2019-04-08 19:45;30,25
2019-04-08 20:00;27,9
2019-04-08 20:15;22,8
2019-04-08 20:30;21,9
2019-04-08 20:45;20,8
2019-04-08 21:00;22,05
2019-04-08 21:15;25,5
2019-04-08 21:30;27,25
2019-04-08 21:45;24,55
2019-04-08 22:00;19,6
2019-04-08 22:15;16,15
2019-04-08 22:30;15,5
2019-04-08 22:45;13,6
2019-04-08 23:00;14,35
2019-04-08 23:15;13,1
2019-04-08 23:30;15
2019-04-08 23:45;15,6
2019-04-09 00:00;14
2019-04-09 00:15;14
2019-04-09 00:30;11,7
2019-04-09 00:45;11,85
2019-04-09 01:00;13,3
2019-04-09 01:15;13,45
2019-04-09 01:30;14,4
2019-04-09 01:45;14,9
2019-04-09 02:00;12,65
2019-04-09 02:15;16
2019-04-09 02:30;16,85
2019-04-09 02:45;20,4
2019-04-09 03:00;22,15
2019-04-09 03:15;20,35
2019-04-09 03:30;19,65
2019-04-09 03:45;20,05
2019-04-09 04:00;20,3
2019-04-09 04:15;20,85
2019-04-09 04:30;19,95
2019-04-09 04:45;20,15
2019-04-09 05:00;23,75
2019-04-09 05:15;20,45
2019-04-09 05:30;19,75
2019-04-09 05:45;20,3
2019-04-09 06:00;18,1
2019-04-09 06:15;17,5
2019-04-09 06:30;16,7
2019-04-09 06:45;17,55
2019-04-09 07:00;17,15
2019-04-09 07:15;17,95
2019-04-09 07:30;46,4
2019-04-09 07:45;18,5
2019-04-09 08:00;24,05
2019-04-09 08:15;18,15
2019-04-09 08:30;25,55
2019-04-09 08:45;21,5
2019-04-09 09:00;31,7
2019-04-09 09:15;34,3
2019-04-09 09:30;37,3
2019-04-09 09:45;42,45
2019-04-09 10:00;35,15
2019-04-09 10:15;44,1
2019-04-09 10:30;39,05
2019-04-09 10:45;45,6
2019-04-09 11:00;50,9
2019-04-09 11:15;50,2
2019-04-09 11:30;54,05
2019-04-09 11:45;49,45
2019-04-09 12:00;51,8
2019-04-09 12:15;58,65
2019-04-09 12:30;52,65
2019-04-09 12:45;64,35
2019-04-09 13:00;58,6
2019-04-09 13:15;63,5
2019-04-09 13:30;58,4
2019-04-09 13:45;65,7
2019-04-09 14:00;61,1
2019-04-09 14:15;60,75
2019-04-09 14:30;56,35
2019-04-09 14:45;61,8
2019-04-09 15:00;59,3
2019-04-09 15:15;52,9
2019-04-09 15:30;54,45
2019-04-09 15:45;48,65
2019-04-09 16:00;46,6
2019-04-09 16:15;40,4
2019-04-09 16:30;37,6
2019-04-09 16:45;41,8
2019-04-09 17:00;38,45
2019-04-09 17:15;42,75
2019-04-09 17:30;38,7
2019-04-09 17:45;43,2
2019-04-09 18:00;36,4
2019-04-09 18:15;33,1
2019-04-09 18:30;31,8
2019-04-09 18:45;30,2
2019-04-09 19:00;29,1
2019-04-09 19:15;27,1
2019-04-09 19:30;25
2019-04-09 19:45;25,65
2019-04-09 20:00;23,65
2019-04-09 20:15;17,9
2019-04-09 20:30;15,05
2019-04-09 20:45;14,35
2019-04-09 21:00;13,45
2019-04-09 21:15;14,45
2019-04-09 21:30;14,8
2019-04-09 21:45;14,45
2019-04-09 22:00;13,15
2019-04-09 22:15;18,5
2019-04-09 22:30;20,4
2019-04-09 22:45;18,75
2019-04-09 23:00;21,55
2019-04-09 23:15;21
2019-04-09 23:30;21,55
2019-04-09 23:45;18,8
2019-04-10 00:00;19,35
2019-04-10 00:15;19,4
2019-04-10 00:30;18,35
2019-04-10 00:45;13,5
2019-04-10 01:00;9,8
2019-04-10 01:15;9,25
2019-04-10 01:30;11,35
2019-04-10 01:45;11,25
2019-04-10 02:00;11,5
2019-04-10 02:15;11,75
2019-04-10 02:30;12,75
2019-04-10 02:45;14,7
2019-04-10 03:00;16,6
2019-04-10 03:15;18,05
2019-04-10 03:30;17,75
2019-04-10 03:45;16,6
2019-04-10 04:00;17,1
2019-04-10 04:15;16,6
2019-04-10 04:30;16,3
2019-04-10 04:45;17,5
2019-04-10 05:00;17,5
2019-04-10 05:15;17,1
2019-04-10 05:30;19,65
2019-04-10 05:45;19,65
2019-04-10 06:00;18,25
2019-04-10 06:15;16,55
2019-04-10 06:30;13,9
2019-04-10 06:45;13,35
2019-04-10 07:00;13,2
2019-04-10 07:15;12,05
2019-04-10 07:30;40,5
2019-04-10 07:45;18,15
2019-04-10 08:00;19,05
2019-04-10 08:15;18,05
2019-04-10 08:30;20,15
2019-04-10 08:45;22,8
2019-04-10 09:00;26,6
2019-04-10 09:15;29,5
2019-04-10 09:30;35,7
2019-04-10 09:45;34
2019-04-10 10:00;31,5
2019-04-10 10:15;32,35
2019-04-10 10:30;30,4
2019-04-10 10:45;35,3
2019-04-10 11:00;33,4
2019-04-10 11:15;41
2019-04-10 11:30;47,65
2019-04-10 11:45;46,5
2019-04-10 12:00;44,85
2019-04-10 12:15;49,15
2019-04-10 12:30;43,45
2019-04-10 12:45;48,7
2019-04-10 13:00;45,6
2019-04-10 13:15;48,6
2019-04-10 13:30;44,05
2019-04-10 13:45;45,15
2019-04-10 14:00;50,65
2019-04-10 14:15;49,35
2019-04-10 14:30;52,35
2019-04-10 14:45;50,35
2019-04-10 15:00;45,05
2019-04-10 15:15;45,7
2019-04-10 15:30;39
2019-04-10 15:45;43,5
2019-04-10 16:00;41,4
2019-04-10 16:15;43,75
2019-04-10 16:30;36,85
2019-04-10 16:45;39,6
2019-04-10 17:00;30,9
2019-04-10 17:15;32
2019-04-10 17:30;31,7
2019-04-10 17:45;28,85
2019-04-10 18:00;36,15
2019-04-10 18:15;30,4
2019-04-10 18:30;25,85
2019-04-10 18:45;34,85
2019-04-10 19:00;35,75
2019-04-10 19:15;35,95
2019-04-10 19:30;36,2
2019-04-10 19:45;38,95
2019-04-10 20:00;33,15
2019-04-10 20:15;31
2019-04-10 20:30;27,95
2019-04-10 20:45;26,65
2019-04-10 21:00;26,75
2019-04-10 21:15;27,7
2019-04-10 21:30;32,1
2019-04-10 21:45;31
2019-04-10 22:00;30
2019-04-10 22:15;24,8
2019-04-10 22:30;17,35
2019-04-10 22:45;10,75
2019-04-10 23:00;12,9
2019-04-10 23:15;12,35
2019-04-10 23:30;11
2019-04-10 23:45;11,15
2019-04-11 00:00;10,35
2019-04-11 00:15;10,5
2019-04-11 00:30;10,95
2019-04-11 00:45;9,15
2019-04-11 01:00;9,75
2019-04-11 01:15;9,35
2019-04-11 01:30;10,7
2019-04-11 01:45;11,45
2019-04-11 02:00;14,85
2019-04-11 02:15;14,9
2019-04-11 02:30;16,6
2019-04-11 02:45;15,8
2019-04-11 03:00;15,6
2019-04-11 03:15;16,3
2019-04-11 03:30;16,9
2019-04-11 03:45;18,4
2019-04-11 04:00;19,25
2019-04-11 04:15;16,45
2019-04-11 04:30;14,4
2019-04-11 04:45;16,05
2019-04-11 05:00;17,75
2019-04-11 05:15;18,75
2019-04-11 05:30;17,8
2019-04-11 05:45;17,5
2019-04-11 06:00;17,15
2019-04-11 06:15;15,6
2019-04-11 06:30;19,9
2019-04-11 06:45;15,05
2019-04-11 07:00;13,15
2019-04-11 07:15;13,4
2019-04-11 07:30;40,45
2019-04-11 07:45;13,55
2019-04-11 08:00;16,2
2019-04-11 08:15;14
2019-04-11 08:30;20,2
2019-04-11 08:45;18,4
2019-04-11 09:00;22,2
2019-04-11 09:15;21,9
2019-04-11 09:30;29,9
2019-04-11 09:45;33,2
2019-04-11 10:00;34,1
2019-04-11 10:15;33,45
2019-04-11 10:30;36,35
2019-04-11 10:45;37,05
2019-04-11 11:00;37
2019-04-11 11:15;35,3
2019-04-11 11:30;36,7
2019-04-11 11:45;45,25
2019-04-11 12:00;36,9
2019-04-11 12:15;40,4
2019-04-11 12:30;36,1
2019-04-11 12:45;40,9
2019-04-11 13:00;38
2019-04-11 13:15;39,6
2019-04-11 13:30;33,9
2019-04-11 13:45;41,45
2019-04-11 14:00;36,45
2019-04-11 14:15;39,3
2019-04-11 14:30;35,5
2019-04-11 14:45;40,3
2019-04-11 15:00;38,45
2019-04-11 15:15;37,85
2019-04-11 15:30;38,4
2019-04-11 15:45;33,2
2019-04-11 16:00;32,85
2019-04-11 16:15;37,05
2019-04-11 16:30;32,75
2019-04-11 16:45;35,35
2019-04-11 17:00;28,5
2019-04-11 17:15;26,7
2019-04-11 17:30;27,65
2019-04-11 17:45;22,2
2019-04-11 18:00;21,4
2019-04-11 18:15;19,7
2019-04-11 18:30;19,75
2019-04-11 18:45;26,3
2019-04-11 19:00;29,15
2019-04-11 19:15;27,75
2019-04-11 19:30;24,9
2019-04-11 19:45;20,6
2019-04-11 20:00;16,3
2019-04-11 20:15;14,65
2019-04-11 20:30;12,95
2019-04-11 20:45;12,7
2019-04-11 21:00;11,3
2019-04-11 21:15;13
2019-04-11 21:30;16,6
2019-04-11 21:45;14,55
2019-04-11 22:00;15,35
2019-04-11 22:15;14,6
2019-04-11 22:30;14,5
2019-04-11 22:45;15,05
2019-04-11 23:00;13,05
2019-04-11 23:15;12,65
2019-04-11 23:30;9,85
2019-04-11 23:45;10,3
2019-04-12 00:00;8,35
2019-04-12 00:15;7,25
2019-04-12 00:30;7,65
2019-04-12 00:45;7,05
2019-04-12 01:00;9,15
2019-04-12 01:15;10,45
2019-04-12 01:30;10,6
2019-04-12 01:45;12,85
2019-04-12 02:00;12,25
2019-04-12 02:15;13,15
2019-04-12 02:30;13,2
2019-04-12 02:45;12,25
2019-04-12 03:00;14,4
2019-04-12 03:15;14,5
2019-04-12 03:30;13,6
2019-04-12 03:45;13,1
2019-04-12 04:00;14,5
2019-04-12 04:15;12,6
2019-04-12 04:30;12,8
2019-04-12 04:45;14,95
2019-04-12 05:00;14,5
2019-04-12 05:15;14,2
2019-04-12 05:30;14
2019-04-12 05:45;12,5
2019-04-12 06:00;12,15
2019-04-12 06:15;11,7
2019-04-12 06:30;10,3
2019-04-12 06:45;10,15
2019-04-12 07:00;15,75
2019-04-12 07:15;17,6
2019-04-12 07:30;42,9
2019-04-12 07:45;9,5
2019-04-12 08:00;15,1
2019-04-12 08:15;13,75
2019-04-12 08:30;18,85
2019-04-12 08:45;21,8
2019-04-12 09:00;20,75
2019-04-12 09:15;26,6
2019-04-12 09:30;30,85
2019-04-12 09:45;35,3
2019-04-12 10:00;31,3
2019-04-12 10:15;36,4
2019-04-12 10:30;36,4
2019-04-12 10:45;42,8
2019-04-12 11:00;41,6
2019-04-12 11:15;44,9
2019-04-12 11:30;45,1
2019-04-12 11:45;48,4
2019-04-12 12:00;41,3
2019-04-12 12:15;46,8
2019-04-12 12:30;45,7
2019-04-12 12:45;47,15
2019-04-12 13:00;54,45
2019-04-12 13:15;42,15
2019-04-12 13:30;47,2
2019-04-12 13:45;50,5
2019-04-12 14:00;54,6
2019-04-12 14:15;53,25
2019-04-12 14:30;43,8
2019-04-12 14:45;48,7
2019-04-12 15:00;42,35
2019-04-12 15:15;39,05
2019-04-12 15:30;48,75
2019-04-12 15:45;41,55
2019-04-12 16:00;47,95
2019-04-12 16:15;34,4
2019-04-12 16:30;30,4
2019-04-12 16:45;34,1
2019-04-12 17:00;30,2
2019-04-12 17:15;30,9
2019-04-12 17:30;32,25
2019-04-12 17:45;24,6
2019-04-12 18:00;22,85
2019-04-12 18:15;25,9
2019-04-12 18:30;21,65
2019-04-12 18:45;22,2
2019-04-12 19:00;26,85
2019-04-12 19:15;28,65
2019-04-12 19:30;22,5
2019-04-12 19:45;23,7
2019-04-12 20:00;22,2
2019-04-12 20:15;18,95
2019-04-12 20:30;16,05
2019-04-12 20:45;12,9
2019-04-12 21:00;13,5
2019-04-12 21:15;14,75
2019-04-12 21:30;15,2
2019-04-12 21:45;14,45
2019-04-12 22:00;11,85
2019-04-12 22:15;9,15
2019-04-12 22:30;6,3
2019-04-12 22:45;7,6
2019-04-12 23:00;10,3
2019-04-12 23:15;10,8
2019-04-12 23:30;12,25
2019-04-12 23:45;7,6
2019-04-13 00:00;8,75
2019-04-13 00:15;5,05
2019-04-13 00:30;4,7
2019-04-13 00:45;5,7
2019-04-13 01:00;5,05
2019-04-13 01:15;4,9
2019-04-13 01:30;2,9
2019-04-13 01:45;2,15
2019-04-13 02:00;3,25
2019-04-13 02:15;3,25
2019-04-13 02:30;3,1
2019-04-13 02:45;3,65
2019-04-13 03:00;3,3
2019-04-13 03:15;4,05
2019-04-13 03:30;3,75
2019-04-13 03:45;4,1
2019-04-13 04:00;4,4
2019-04-13 04:15;2,6
2019-04-13 04:30;3,4
2019-04-13 04:45;4
2019-04-13 05:00;2,1
2019-04-13 05:15;2,8
2019-04-13 05:30;2
2019-04-13 05:45;1,8
2019-04-13 06:00;1,65
2019-04-13 06:15;1,5
2019-04-13 06:30;5,5
2019-04-13 06:45;6,05
2019-04-13 07:00;4,35
2019-04-13 07:15;3,75
2019-04-13 07:30;4,15
2019-04-13 07:45;2,45
2019-04-13 08:00;6,6
2019-04-13 08:15;6,35
2019-04-13 08:30;4,95
2019-04-13 08:45;3,4
2019-04-13 09:00;7,05
2019-04-13 09:15;6,8
2019-04-13 09:30;7,25
2019-04-13 09:45;4,7
2019-04-13 10:00;4,5
2019-04-13 10:15;4,55
2019-04-13 10:30;5,1
2019-04-13 10:45;7,5
2019-04-13 11:00;5,45
2019-04-13 11:15;4,55
2019-04-13 11:30;5,15
2019-04-13 11:45;5,7
2019-04-13 12:00;6,65
2019-04-13 12:15;4,3
2019-04-13 12:30;3,8
2019-04-13 12:45;1,4
2019-04-13 13:00;1,35
2019-04-13 13:15;8,4
2019-04-13 13:30;10,3
2019-04-13 13:45;10,7
2019-04-13 14:00;12,6
2019-04-13 14:15;11
2019-04-13 14:30;13,1
2019-04-13 14:45;13,6
2019-04-13 15:00;10,9
2019-04-13 15:15;12,3
2019-04-13 15:30;13,15
2019-04-13 15:45;13,55
2019-04-13 16:00;13,25
2019-04-13 16:15;11,75
2019-04-13 16:30;11,55
2019-04-13 16:45;11,05
2019-04-13 17:00;13
2019-04-13 17:15;13,9
2019-04-13 17:30;14,75
2019-04-13 17:45;13,95
2019-04-13 18:00;11,6
2019-04-13 18:15;12,15
2019-04-13 18:30;12,6
2019-04-13 18:45;12,6
2019-04-13 19:00;16,6
2019-04-13 19:15;16,1
2019-04-13 19:30;15,85
2019-04-13 19:45;14,4
2019-04-13 20:00;15,3
2019-04-13 20:15;15,15
2019-04-13 20:30;13,35
2019-04-13 20:45;12,55
2019-04-13 21:00;12,05
2019-04-13 21:15;10,6
2019-04-13 21:30;9,5
2019-04-13 21:45;8,5
2019-04-13 22:00;8,75
2019-04-13 22:15;6,05
2019-04-13 22:30;5,1
2019-04-13 22:45;4,05
2019-04-13 23:00;5,05
2019-04-13 23:15;6,3
2019-04-13 23:30;6,85
2019-04-13 23:45;7,9
2019-04-14 00:00;6,6
2019-04-14 00:15;2,95
2019-04-14 00:30;1,5
2019-04-14 00:45;1,2
2019-04-14 01:00;0,7
2019-04-14 01:15;0,8
2019-04-14 01:30;2
2019-04-14 01:45;2,55
2019-04-14 02:00;1,75
2019-04-14 02:15;2,2
2019-04-14 02:30;2,25
2019-04-14 02:45;2,9
2019-04-14 03:00;3,9
2019-04-14 03:15;2,55
2019-04-14 03:30;2,55
2019-04-14 03:45;3,95
2019-04-14 04:00;4,25
2019-04-14 04:15;3,95
2019-04-14 04:30;3,4
2019-04-14 04:45;3,5
2019-04-14 05:00;2,9
2019-04-14 05:15;3,2
2019-04-14 05:30;2,9
2019-04-14 05:45;1,55
2019-04-14 06:00;3,1
2019-04-14 06:15;3,1
2019-04-14 06:30;3,85
2019-04-14 06:45;3,6
2019-04-14 07:00;2,35
2019-04-14 07:15;2,7
2019-04-14 07:30;2,95
2019-04-14 07:45;3,2
2019-04-14 08:00;3,7
2019-04-14 08:15;2,3
2019-04-14 08:30;1,4
2019-04-14 08:45;4,25
2019-04-14 09:00;2,9
2019-04-14 09:15;0,25
2019-04-14 09:30;0,2
2019-04-14 09:45;0
2019-04-14 10:00;0,05
2019-04-14 10:15;0,25
2019-04-14 10:30;0,1
2019-04-14 10:45;2,3
2019-04-14 11:00;1,4
2019-04-14 11:15;1,05
2019-04-14 11:30;1,55
2019-04-14 11:45;1,4
2019-04-14 12:00;0,9
2019-04-14 12:15;2,2
2019-04-14 12:30;0
2019-04-14 12:45;5,5
2019-04-14 13:00;7,5
2019-04-14 13:15;7,4
2019-04-14 13:30;6,4
2019-04-14 13:45;6,4
2019-04-14 14:00;6,65
2019-04-14 14:15;8,45
2019-04-14 14:30;7,7
2019-04-14 14:45;9,9
2019-04-14 15:00;8,4
2019-04-14 15:15;7,2
2019-04-14 15:30;7,85
2019-04-14 15:45;8,1
2019-04-14 16:00;8,5
2019-04-14 16:15;9,6
2019-04-14 16:30;9,65
2019-04-14 16:45;8,35
2019-04-14 17:00;8,55
2019-04-14 17:15;8,6
2019-04-14 17:30;8,75
2019-04-14 17:45;8,6
2019-04-14 18:00;6,45
2019-04-14 18:15;6,25
2019-04-14 18:30;9,65
2019-04-14 18:45;5,9
2019-04-14 19:00;6,3
2019-04-14 19:15;7,1
2019-04-14 19:30;7,45
2019-04-14 19:45;8,4
2019-04-14 20:00;9,05
2019-04-14 20:15;6,2
2019-04-14 20:30;4,05
2019-04-14 20:45;5,25
2019-04-14 21:00;7,5
2019-04-14 21:15;8,5
2019-04-14 21:30;8,45
2019-04-14 21:45;7,15
2019-04-14 22:00;7,7
2019-04-14 22:15;7,7
2019-04-14 22:30;8,6
2019-04-14 22:45;8,85
2019-04-14 23:00;10,9
2019-04-14 23:15;10,45
2019-04-14 23:30;9,1
2019-04-14 23:45;5,4

